[[{"header":{"parameterUnit":"m.s-1","parameterCategory":1,"la1":30.2991,"la2":30.254,"lo1":-89.0895,"lo2":-89.0444,"dx":0.0017,"dy":0.0017,"nx":28,"ny":28,"refTime":"2023-01-30T15:00:00:Z","depth":0,"parameterNumber":2,"parameterNumberName":"U-component_of_WINDS"},"data":[0,0,0,0,0,0,0,0,0,0,0,0,0,0,0,0,0,0,0,0,0,0,0,0,0,0,0,0,0,0,0,0,0,0,0,0,0,0,0,0,0,0,0,0,0,0,0,0,0,0,0,0,0,0,0,0,0,0,0.0469,0.0471,0,0.0591,0.0592,0.0593,0.0665,0.0665,0.0665,0.0666,0.0795,0.0799,0.0802,0,0,0,0,0,0,0,0,0,0,0,0,0,0.0305,0.0308,0.0469,0.0471,0.0472,0.059,0.0592,0.0594,0.0665,0.0665,0.0666,0.0666,0.0794,0.0798,0.0802,0,0,0,0,0,0,0,0,0,0,0,0,0,0.0396,0.0309,0.0469,0.0522,0.0528,0.059,0.0592,0.0594,0.0665,0.0665,0.0666,0.0666,0.0793,0.0798,0.0803,0.0823,0,0,0.0817,0.0819,0,0,0,0,0,0,0,0,0.0391,0.0402,0.0513,0.0518,0.0525,0.0613,0.0582,0.0671,0.0665,0.0613,0.0666,0.0666,0.0735,0.0744,0.0766,0.0829,0.0835,0.0818,0.082,0.0822,0.0824,0,0,0,0,0,0,0,0.0385,0.0398,0.0518,0.0514,0.0522,0.0541,0.0555,0.0599,0.067,0.0617,0.0623,0.0636,0.0738,0.0762,0.077,0.0837,0.0817,0.0822,0.0825,0.0826,0.0924,0.0924,0,0,0,0,0,0,0.0369,0.0392,0.0514,0.0521,0.0458,0.0544,0.0559,0.0584,0.067,0.0683,0.0635,0.0639,0.0753,0.0764,0.0775,0.0805,0.0822,0.0827,0.083,0.0925,0.0924,0.0924,0,0,0,0,0,0,0.0365,0.0379,0.0509,0.0458,0.0476,0.0546,0.0574,0.0587,0.061,0.0683,0.0697,0.0646,0.0754,0.0768,0.0811,0.0811,0.0829,0.0833,0.0925,0.0925,0.0924,0.0866,0,0,0,0,0,0,0.036,0.0378,0.0385,0.0458,0.0478,0.054,0.0574,0.0589,0.0617,0.0623,0.0697,0.0709,0.0755,0.0803,0.0815,0.0818,0.0837,0.0925,0.0925,0.0924,0.0868,0.0864,0.086,0,0,0,0,0,0.0354,0.0364,0.0385,0.0399,0.0488,0.054,0.0552,0.0604,0.0617,0.0626,0.0673,0.0707,0.0809,0.0807,0.0821,0.0825,0.0926,0.0925,0.0924,0.087,0.0864,0.086,0,0,0,0,0,0,0.0292,0.0375,0.0398,0.0432,0.0478,0.0552,0.0565,0.0596,0.0641,0.0644,0.0708,0.0724,0.0761,0.0797,0.0794,0.085,0.0871,0.0873,0.0825,0.082,0.0816,0.0806,0.0841,0,0,0,0,0,0.0281,0.0315,0.0387,0.0409,0.0431,0.0494,0.0518,0.0554,0.0605,0.0625,0.0676,0.0726,0.077,0.0797,0.0841,0.0874,0.0892,0.0884,0.0879,0.0876,0.0877,0.0898,0.0896,0.0922,0.0922,0.0922,0,0,0.0261,0.0311,0.0328,0.0398,0.0438,0.0473,0.051,0.0545,0.0572,0.0632,0.0674,0.0713,0.0774,0.0811,0.0831,0.0843,0.0874,0.0875,0.0871,0.0875,0.0897,0.0895,0.0892,0.0922,0.0922,0.0922,0,0,0.0242,0.0282,0.0306,0.0345,0.0405,0.0447,0.0452,0.0521,0.0549,0.0592,0.0638,0.0672,0.0745,0.0787,0.0817,0.0814,0.0847,0.0827,0.0805,0.0825,0.0823,0.0821,0.0821,0.082,0.0828,0.0828,0.0828,0,0.021,0.0262,0.0315,0.0347,0.0377,0.0431,0.0457,0.0493,0.0564,0.0585,0.0597,0.069,0.0735,0.0783,0.0782,0.0805,0.0815,0.0819,0.0818,0.0817,0.0817,0.0817,0.0817,0.0825,0.0825,0.0826,0.0826,0,0.0221,0.0256,0.0269,0.0334,0.0366,0.0395,0.0453,0.0479,0.0512,0.0553,0.0598,0.0653,0.0709,0.0723,0.0756,0.0777,0.0783,0.0806,0.0828,0.081,0.0812,0.0812,0.0821,0.0822,0.0823,0.0823,0,0,0.0165,0.0259,0.0263,0.0294,0.0364,0.0394,0.0426,0.0479,0.05,0.0548,0.0578,0.0639,0.066,0.0695,0.0733,0.0751,0.0746,0.0772,0.0775,0.0766,0.0773,0.0755,0.0754,0.0768,0.0768,0.0769,0.0768,0,0.0157,0.0215,0.0263,0.0304,0.0339,0.039,0.0419,0.0466,0.0505,0.0541,0.0586,0.0628,0.0653,0.0674,0.0694,0.0742,0.0748,0.0743,0.0798,0.0799,0.0781,0.0755,0.0736,0.0733,0.0769,0.0769,0.0769,0,0.0154,0.0198,0.0242,0.0309,0.0325,0.0349,0.0403,0.0436,0.0491,0.0519,0.0557,0.0597,0.0635,0.0653,0.0708,0.0703,0.0729,0.0756,0.0757,0.0765,0.0783,0.0762,0.0734,0.0733,0.0771,0.0771,0.077,0,0.011,0.0181,0.0216,0.0241,0.032,0.0335,0.0369,0.0425,0.0454,0.0501,0.0521,0.0573,0.0601,0.0641,0.0694,0.0702,0.0744,0.0766,0.0769,0.0767,0.0775,0.0774,0.0751,0.0791,0.0791,0.0791,0.0791,0,0.0096,0.0121,0.0197,0.0219,0.0249,0.0305,0.0334,0.0373,0.0422,0.0453,0.0502,0.0531,0.06,0.0638,0.068,0.0719,0.0732,0.0756,0.0767,0.0752,0.0749,0.077,0.0772,0.0791,0.0791,0.0791,0.0791,0,0.0051,0.0103,0.0145,0.0216,0.0235,0.0254,0.0315,0.034,0.0381,0.0421,0.0434,0.05,0.0547,0.0604,0.067,0.0699,0.0734,0.0751,0.0715,0.0721,0.0721,0.072,0.071,0.0712,0.0751,0.075,0.075,0,0.0039,0.0059,0.0131,0.0155,0.0187,0.0225,0.0255,0.0312,0.0341,0.0405,0.0422,0.0473,0.0516,0.0589,0.0645,0.0696,0.0714,0.0707,0.0722,0.0706,0.0715,0.0713,0.0716,0.0703,0.0702,0.0702,0.0701,0,0.0011,0.0036,0.0075,0.0124,0.0158,0.02,0.0244,0.0261,0.0328,0.0359,0.0406,0.044,0.0507,0.0557,0.0615,0.0653,0.0688,0.0696,0.07,0.0684,0.0663,0.0675,0.0704,0.0696,0.0697,0.0697,0.0697,0.0698,-0.0018,0.0003,0.0057,0.01,0.0139,0.0179,0.0205,0.025,0.029,0.0348,0.038,0.0427,0.0483,0.0565,0.0601,0.064,0.0653,0.0658,0.0659,0.0659,0.0655,0.0656,0.0651,0.0651,0.0651,0.0651,0.0652,0,-0.0043,-0.0005,0.0034,0.0093,0.0127,0.0156,0.0207,0.0234,0.0275,0.0323,0.0364,0.042,0.0469,0.0528,0.0581,0.0601,0.0619,0.0614,0.0613,0.0621,0.064,0.0632,0.0598,0.0598,0.0598,0.0598,0.0598,0.0598,-0.0052,-0.0016,0.0016,0.0073,0.0111,0.0156,0.0182,0.022,0.0259,0.0318,0.0358,0.0396,0.0449,0.0507,0.0554,0.057,0.0588,0.0577,0.0598,0.0615,0.062,0.0624,0.0617,0.058,0.058,0.0576,0.0576,0.0576]},{"header":{"parameterUnit":"m.s-1","parameterCategory":1,"la1":30.2991,"la2":30.254,"lo1":-89.0895,"lo2":-89.0444,"dx":0.0017,"dy":0.0017,"nx":28,"ny":28,"refTime":"2023-01-30T15:00:00:Z","depth":0,"parameterNumber":3,"parameterNumberName":"V-component_of_WINDS"},"data":[0,0,0,0,0,0,0,0,0,0,0,0,0,0,0,0,0,0,0,0,0,0,0,0,0,0,0,0,0,0,0,0,0,0,0,0,0,0,0,0,0,0,0,0,0,0,0,0,0,0,0,0,0,0,0,0,0,0,0.4746,0.4746,0,0.4681,0.468,0.4679,0.4681,0.4682,0.4683,0.4684,0.4609,0.4606,0.4603,0,0,0,0,0,0,0,0,0,0,0,0,0,0.4866,0.4863,0.4746,0.4746,0.4745,0.4681,0.468,0.4679,0.4681,0.4682,0.4683,0.4684,0.461,0.4607,0.4603,0,0,0,0,0,0,0,0,0,0,0,0,0,0.4808,0.4863,0.4747,0.4738,0.4737,0.4681,0.468,0.4679,0.4681,0.4682,0.4683,0.4685,0.4611,0.4607,0.4603,0.4549,0,0,0.459,0.4588,0,0,0,0,0,0,0,0,0.4811,0.4804,0.474,0.4739,0.4737,0.4691,0.4695,0.4635,0.468,0.4702,0.4684,0.4685,0.4635,0.4628,0.4613,0.4545,0.4542,0.4589,0.4587,0.4585,0.4584,0,0,0,0,0,0,0,0.4815,0.4807,0.472,0.4739,0.4737,0.4735,0.4729,0.4683,0.4661,0.47,0.47,0.4693,0.4634,0.4617,0.4611,0.4541,0.4589,0.4586,0.4583,0.4581,0.4424,0.4423,0,0,0,0,0,0,0.4822,0.481,0.4722,0.4718,0.4779,0.4732,0.4725,0.4704,0.4662,0.4657,0.4692,0.4693,0.4624,0.4616,0.4609,0.4542,0.4585,0.4581,0.4578,0.4426,0.4424,0.4422,0,0,0,0,0,0,0.4825,0.4814,0.4725,0.4764,0.4753,0.4729,0.4705,0.4702,0.4685,0.4655,0.465,0.4679,0.4624,0.4615,0.4564,0.4539,0.4579,0.4575,0.4428,0.4425,0.4423,0.4408,0,0,0,0,0,0,0.4828,0.4815,0.4796,0.4764,0.4751,0.4684,0.4704,0.47,0.4679,0.468,0.4642,0.4637,0.4625,0.457,0.456,0.4534,0.4572,0.443,0.4427,0.4424,0.4411,0.4406,0.4401,0,0,0,0,0,0.4833,0.4793,0.4795,0.4785,0.4727,0.4682,0.4674,0.4663,0.4677,0.4656,0.4637,0.4638,0.4544,0.4565,0.4553,0.4526,0.4431,0.4428,0.4424,0.4413,0.4407,0.4402,0,0,0,0,0,0,0.4821,0.4789,0.4791,0.4741,0.4714,0.4683,0.4657,0.4657,0.4625,0.4627,0.4612,0.4603,0.4552,0.4534,0.4558,0.4471,0.4489,0.4483,0.4485,0.4478,0.4474,0.4479,0.4568,0,0,0,0,0,0.4813,0.4782,0.4755,0.4713,0.47,0.4681,0.4661,0.4655,0.4626,0.4614,0.4591,0.4561,0.4525,0.4501,0.4465,0.4409,0.4399,0.4384,0.4379,0.4375,0.437,0.4337,0.4329,0.441,0.441,0.441,0,0,0.4795,0.4774,0.4755,0.471,0.4689,0.4655,0.4671,0.4634,0.4608,0.4608,0.4559,0.4541,0.4506,0.4452,0.4427,0.4435,0.4345,0.4371,0.4368,0.4364,0.4332,0.4325,0.4318,0.4408,0.4408,0.4409,0,0,0.4746,0.4727,0.469,0.4669,0.4638,0.4626,0.4617,0.4585,0.4574,0.4526,0.4524,0.4492,0.443,0.4405,0.4384,0.4325,0.4324,0.4314,0.4288,0.4256,0.425,0.4244,0.4222,0.4214,0.4309,0.4308,0.4308,0,0.4727,0.4678,0.467,0.4634,0.4613,0.4614,0.4575,0.4554,0.4512,0.4497,0.4507,0.4429,0.4406,0.4345,0.4331,0.4315,0.4302,0.4318,0.4252,0.4246,0.424,0.4219,0.4211,0.4307,0.4307,0.4308,0.4308,0,0.4656,0.4622,0.4595,0.4557,0.4534,0.4496,0.448,0.4457,0.4453,0.4438,0.4388,0.436,0.4319,0.4304,0.4299,0.4243,0.4249,0.4256,0.4273,0.4232,0.4211,0.4203,0.4306,0.4306,0.4306,0.4307,0,0,0.4596,0.4555,0.4545,0.4528,0.4494,0.4466,0.4428,0.439,0.437,0.4341,0.4306,0.4254,0.4261,0.4237,0.4229,0.4201,0.4155,0.4211,0.421,0.42,0.4089,0.4083,0.4073,0.4155,0.4153,0.4152,0.4091,0,0.4542,0.4476,0.4468,0.4409,0.4376,0.4377,0.4343,0.4317,0.4302,0.427,0.4253,0.4216,0.4228,0.4214,0.4187,0.4166,0.4132,0.4171,0.412,0.4118,0.4128,0.4063,0.4056,0.4001,0.4083,0.4082,0.4081,0,0.447,0.4441,0.438,0.435,0.4336,0.4306,0.4271,0.4241,0.4211,0.4202,0.4176,0.4172,0.4129,0.415,0.4089,0.4116,0.4095,0.4081,0.4079,0.4072,0.4096,0.4053,0.3983,0.3974,0.4068,0.4069,0.407,0,0.4431,0.4377,0.4333,0.4318,0.4283,0.4262,0.4245,0.4217,0.4195,0.4163,0.4148,0.411,0.4089,0.4059,0.4044,0.4061,0.3984,0.4003,0.3973,0.3973,0.3955,0.3956,0.3879,0.3944,0.3944,0.3944,0.3945,0,0.437,0.4332,0.4315,0.4288,0.4244,0.4235,0.4191,0.4175,0.415,0.4117,0.4115,0.4084,0.4066,0.4031,0.4018,0.3969,0.396,0.395,0.3946,0.3949,0.395,0.3934,0.3937,0.3942,0.3943,0.3943,0.3944,0,0.4319,0.4306,0.4258,0.423,0.4221,0.419,0.4165,0.4137,0.4123,0.4082,0.4071,0.4049,0.4008,0.399,0.3939,0.393,0.3874,0.3874,0.3885,0.3884,0.3853,0.3856,0.3761,0.3748,0.3823,0.3823,0.3822,0,0.4281,0.4252,0.4221,0.42,0.4184,0.4151,0.4129,0.4118,0.4094,0.4058,0.4034,0.3994,0.3961,0.3896,0.3873,0.3833,0.3832,0.3801,0.3825,0.3829,0.3829,0.383,0.3827,0.3796,0.3795,0.3795,0.3794,0,0.4213,0.4209,0.4179,0.4146,0.4121,0.4094,0.4067,0.405,0.4034,0.4007,0.3967,0.3942,0.3892,0.3851,0.381,0.3791,0.3788,0.3787,0.3778,0.3779,0.3786,0.3781,0.3871,0.3789,0.379,0.379,0.379,0.379,0.4166,0.414,0.4115,0.4081,0.406,0.4036,0.4008,0.3992,0.3959,0.3919,0.3914,0.387,0.3839,0.3785,0.3764,0.3728,0.3735,0.3722,0.3718,0.3714,0.3712,0.3794,0.372,0.3721,0.3721,0.3721,0.3721,0,0.4098,0.4082,0.4051,0.4015,0.3988,0.3993,0.3963,0.3939,0.3902,0.3875,0.3844,0.3797,0.3757,0.3732,0.3691,0.3667,0.3665,0.3657,0.3657,0.3652,0.3709,0.372,0.3659,0.3659,0.3659,0.3659,0.3659,0.3659,0.4059,0.4015,0.4007,0.3952,0.3936,0.3896,0.3878,0.3855,0.3833,0.3782,0.375,0.3735,0.3707,0.3665,0.3628,0.3621,0.3606,0.3597,0.359,0.3642,0.3649,0.3655,0.3666,0.3594,0.3594,0.3536,0.3536,0.3535]}]]